Tracking 22440 objects as of 27-Feb-2021
HD Live streaming from Space Station
objects crossing your sky now

COSMOS 1691 DEB

Track COSMOS 1691 DEB now!
10-day predictions


NORAD ID: 43316
Int'l Code: 1985-094AA
Perigee: 1,381.6 km
Apogee: 1,399.2 km
Inclination: 82.6 °
Period: 113.4 minutes
Semi major axis: 7761 km
RCS: Unknown
Launch date: October 9, 1985
Source: Commonwealth of Independent States (former USSR) (CIS)
Launch site: PLESETSK MISSILE AND SPACE COMPLEX (PKMTR)

Note: This is SATELLITE DEBRIS
aabbcc
Your satellite tracking list
Your tracking list is empty




NASA's NSSDC Master Catalog

Two Line Element Set (TLE):
1 43316U 85094AA  21057.60929956  .00000146  00000-0  68633-3 0  9994
2 43316  82.6091  14.3501 0011351 138.7336 221.4619 12.69679973830398
Source of the keplerian elements: AFSPC